CW4320 Weather Reports


time (UTC)temp
C
wind
direction
speed
KPH
gust
KPH
rain 1hr
cm
rain 24hr
cm
rain mn
cm
humidity
%
barometer
mb
20260503072520 15 99 0.0 3.2 0.00 0.74 0.03 80 1013.1
20260503072026 15 79 1.6 3.2 0.00 0.74 0.03 80 1013.1
20260503071020 14 122 0.0 3.2 0.00 0.74 0.03 80 1013.1
20260503070600 14 122 1.6 3.2 0.00 0.74 0.03 80 1013.1
20260503055031 13 122 3.2 4.8 0.03 0.74 0.03 80 1012.9
20260503054028 12 122 0.0 4.8 0.00 0.71 0.00 80 1012.8
20260503053537 12 136 1.6 4.8 0.00 0.71 0.00 80 1012.8
20260503053024 12 213 0.0 3.2 0.00 0.71 0.00 80 1012.8
20260503052533 12 213 0.0 1.6 0.00 0.71 0.00 80 1012.8
20260503051034 13 213 1.6 4.8 0.00 0.71 0.00 80 1012.8
20260503050556 12 213 3.2 4.8 0.00 0.71 0.00 80 1012.8
20260503050039 12 213 1.6 4.8 0.00 0.71 0.00 80 1012.8
20260503045527 12 214 0.0 8.0 0.00 0.71 0.00 80 1012.8
20260503045037 12 213 4.8 8.0 0.00 0.71 0.00 80 1012.8
20260503044526 12 221 4.8 6.4 0.00 0.71 0.00 80 1012.8
20260503044033 12 214 3.2 4.8 0.00 0.71 0.00 80 1012.7
20260503043521 12 214 1.6 4.8 0.00 0.71 0.00 80 1012.7
20260503043024 12 214 3.2 4.8 0.00 0.71 0.00 80 1012.7
20260503042533 12 214 3.2 4.8 0.00 0.71 0.00 80 1012.8
20260503042037 12 214 3.2 4.8 0.00 0.71 0.00 80 1012.8
20260503041525 12 214 0.0 4.8 0.00 0.71 0.00 80 1012.8
20260503041032 12 214 1.6 4.8 0.00 0.71 0.00 80 1012.8
20260503040554 12 214 0.0 8.0 0.00 0.71 0.00 80 1012.8
20260503035528 12 193 4.8 6.4 0.00 0.71 0.00 80 1013.0
20260503035034 12 193 3.2 6.4 0.00 0.71 0.00 80 1013.0
20260503034523 12 193 3.2 6.4 0.00 0.71 0.00 80 1013.0
20260503034030 12 193 3.2 6.4 0.00 0.71 0.00 80 1013.1
20260503033519 12 193 3.2 3.2 0.00 0.71 0.00 80 1013.1
20260503033024 12 192 0.0 0.0 0.00 0.71 0.00 80 1013.1
20260503032533 12 193 0.0 0.0 0.00 0.71 0.00 80 1013.1
20260503032039 12 193 0.0 0.0 0.00 0.71 0.00 80 1013.1
20260503031526 12 193 0.0 1.6 0.00 0.71 0.00 80 1013.1
20260503031036 12 193 0.0 1.6 0.00 0.71 0.00 80 1013.1
20260503030544 12 193 0.0 1.6 0.00 0.71 0.00 80 1013.1
20260503025533 13 193 0.0 3.2 0.00 0.71 0.00 80 1013.2
20260503024527 13 193 1.6 3.2 0.00 0.71 0.00 80 1013.2
20260503024033 13 191 0.0 3.2 0.00 0.71 0.00 80 1013.2
20260503023522 13 193 1.6 3.2 0.00 0.71 0.00 80 1013.2
20260503023027 13 193 0.0 0.0 0.00 0.71 0.00 80 1013.2
20260503022536 13 193 0.0 0.0 0.00 0.71 0.00 80 1013.3
20260503022022 13 193 0.0 0.0 0.00 0.71 0.00 80 1013.3
20260503021531 13 193 0.0 1.6 0.00 0.71 0.00 80 1013.3
20260503021037 13 193 0.0 1.6 0.00 0.71 0.00 80 1013.3
20260503020543 13 193 0.0 0.0 0.00 0.71 0.00 80 1013.3
20260503015536 13 193 0.0 4.8 0.00 0.71 0.00 80 1013.6
20260503015023 13 193 3.2 4.8 0.00 0.71 0.00 80 1013.6
20260503014532 13 192 3.2 4.8 0.00 0.71 0.00 80 1013.6
20260503014033 13 193 0.0 0.0 0.00 0.71 0.00 80 1013.5
20260503013521 13 193 0.0 0.0 0.00 0.71 0.00 80 1013.5
20260503013028 13 194 0.0 3.2 0.00 0.71 0.00 80 1013.5
20260503012535 14 193 1.6 3.2 0.00 0.71 0.00 80 1013.7
20260503012040 14 193 1.6 4.8 0.00 0.71 0.00 80 1013.7
20260503011529 14 193 1.6 4.8 0.00 0.71 0.00 80 1013.7
20260503011039 14 193 1.6 3.2 0.00 0.71 0.00 80 1013.7
20260503010025 14 193 1.6 3.2 0.00 0.71 0.00 80 1013.7
20260503005535 14 193 0.0 0.0 0.03 0.71 0.00 80 1013.7
20260503005039 14 193 0.0 1.6 0.05 0.71 0.00 80 1013.7
20260503004038 14 193 0.0 3.2 0.08 0.71 0.00 80 1013.9
20260503003524 14 193 1.6 4.8 0.08 0.71 0.00 80 1013.9
20260503003030 14 193 1.6 4.8 0.08 0.71 0.00 80 1013.9
20260503002539 14 193 3.2 4.8 0.08 0.71 0.00 80 1014.1
20260503001533 14 281 0.0 1.6 0.08 0.71 0.00 80 1014.1
20260503001021 14 281 0.0 3.2 0.08 0.71 0.00 80 1014.2
20260503000601 14 281 0.0 3.2 0.08 0.71 0.00 80 1014.2
20260503000023 14 281 0.0 1.6 0.08 0.71 0.00 80 1014.2
20260502235532 14 281 0.0 1.6 0.05 0.71 0.71 80 1014.3
20260502235033 14 281 0.0 1.6 0.05 0.69 0.69 80 1014.3
20260502234521 14 281 0.0 1.6 0.00 0.64 0.64 80 1014.3
20260502234026 14 281 0.0 3.2 0.00 0.64 0.64 80 1014.3
20260502233533 14 281 0.0 3.2 0.00 0.64 0.64 80 1014.3
20260502233038 14 281 1.6 3.2 0.00 0.64 0.64 80 1014.3
20260502232525 14 281 0.0 4.8 0.00 0.64 0.64 80 1014.3
20260502232034 14 281 3.2 4.8 0.00 0.64 0.64 80 1014.3
20260502231523 14 184 1.6 3.2 0.00 0.64 0.64 80 1014.3
20260502230551 14 184 1.6 4.8 0.00 0.64 0.64 80 1014.4
20260502225525 14 184 0.0 1.6 0.00 0.64 0.64 80 1014.4
20260502225032 14 184 0.0 3.2 0.00 0.64 0.64 80 1014.4
20260502224521 14 184 0.0 3.2 0.00 0.64 0.64 80 1014.4
20260502224027 14 182 1.6 3.2 0.00 0.64 0.64 80 1014.3
20260502223537 14 184 0.0 1.6 0.00 0.64 0.64 80 1014.3
20260502222533 14 184 0.0 3.2 0.00 0.64 0.64 80 1014.3
20260502222022 14 184 0.0 1.6 0.00 0.64 0.64 80 1014.3
20260502221040 14 184 0.0 0.0 0.00 0.64 0.64 80 1014.4
20260502220025 14 184 0.0 0.0 0.00 0.64 0.64 80 1014.4
20260502215532 14 184 0.0 0.0 0.00 0.64 0.64 80 1014.4
20260502215040 14 184 0.0 0.0 0.00 0.64 0.64 80 1014.4
20260502214529 14 184 0.0 0.0 0.00 0.64 0.64 80 1014.4
20260502214033 14 184 0.0 0.0 0.00 0.64 0.64 80 1014.6
20260502213520 14 184 0.0 0.0 0.00 0.64 0.64 80 1014.6
20260502213027 14 184 0.0 1.6 0.00 0.64 0.64 80 1014.6
20260502212539 14 184 0.0 4.8 0.00 0.64 0.64 80 1014.6
20260502212021 14 184 1.6 4.8 0.00 0.64 0.64 80 1014.6
20260502211529 14 217 1.6 4.8 0.00 0.64 0.64 80 1014.6
20260502211036 14 217 1.6 3.2 0.00 0.64 0.64 80 1014.5
20260502210557 14 217 1.6 3.2 0.00 0.64 0.64 80 1014.5
20260502210021 14 217 1.6 3.2 0.00 0.64 0.64 80 1014.5
20260502205530 14 217 0.0 3.2 0.00 0.64 0.64 80 1014.5
20260502205034 14 217 0.0 4.8 0.00 0.64 0.64 80 1014.5
20260502204029 15 216 1.6 6.4 0.00 0.64 0.64 80 1014.3
20260502203523 15 224 1.6 4.8 0.00 0.64 0.64 80 1014.3
20260502203030 15 234 0.0 4.8 0.00 0.64 0.64 80 1014.3
20260502202539 15 234 0.0 4.8 0.00 0.64 0.64 80 1014.4
20260502202025 15 234 1.6 4.8 0.00 0.64 0.64 80 1014.4
20260502201533 15 234 0.0 4.8 0.00 0.64 0.64 80 1014.4
20260502201038 15 234 3.2 4.8 0.00 0.64 0.64 80 1014.4
20260502200026 15 233 1.6 8.0 0.00 0.64 0.64 80 1014.4
20260502195535 15 224 3.2 8.0 0.00 0.64 0.64 80 1014.4
20260502195022 15 219 3.2 8.0 0.00 0.64 0.64 80 1014.4
20260502194532 15 231 1.6 4.8 0.00 0.64 0.64 80 1014.4
20260502194039 15 238 1.6 4.8 0.00 0.64 0.64 80 1014.3
20260502193527 15 236 0.0 4.8 0.00 0.64 0.64 80 1014.3
20260502193033 15 242 1.6 4.8 0.00 0.64 0.64 80 1014.3
20260502192522 15 256 3.2 6.4 0.00 0.64 0.64 80 1014.2
20260502192029 15 264 3.2 6.4 0.00 0.64 0.64 80 1014.2
20260502191026 15 212 1.6 6.4 0.00 0.64 0.64 80 1014.2
20260502190549 15 222 1.6 6.4 0.00 0.64 0.64 80 1014.2
20260502190034 16 244 3.2 6.4 0.00 0.64 0.64 80 1014.2
20260502185522 16 267 3.2 6.4 0.00 0.64 0.64 80 1014.2
20260502185032 16 260 1.6 6.4 0.00 0.64 0.64 80 1014.2
20260502184521 16 261 0.0 6.4 0.00 0.64 0.64 80 1014.2
20260502184026 16 255 0.0 8.0 0.00 0.64 0.64 80 1014.2
20260502183020 16 205 3.2 8.0 0.00 0.64 0.64 80 1014.2
20260502182530 16 224 1.6 14.5 0.03 0.64 0.64 80 1014.1
20260502182034 16 237 1.6 14.5 0.03 0.64 0.64 80 1014.1
20260502181521 16 265 3.2 9.7 0.03 0.64 0.64 80 1014.1
20260502181026 16 255 3.2 8.0 0.03 0.64 0.64 80 1013.8
20260502180547 16 239 1.6 8.0 0.03 0.64 0.64 80 1013.8
20260502164030 16 54 8.0 11.3 0.33 0.61 0.61 80 1013.9
20260502163521 16 20 8.0 14.5 0.33 0.58 0.58 80 1013.9
20260502163027 16 332 8.0 16.1 0.33 0.58 0.58 80 1013.9
20260502162537 16 359 9.7 16.1 0.33 0.58 0.58 80 1014.3
20260502161533 16 332 4.8 12.9 0.36 0.56 0.56 80 1014.3
20260502160602 16 290 1.6 14.5 0.30 0.51 0.51 80 1014.8
20260502151535 17 293 6.4 16.1 0.00 0.20 0.20 80 1014.3
20260502151039 17 316 3.2 16.1 0.00 0.20 0.20 80 1014.3
20260502150544 17 260 6.4 16.1 0.00 0.20 0.20 80 1014.3
20260502130547 17 59 8.0 11.3 0.03 0.20 0.20 80 1014.2
20260502123533 16 70 16.1 25.7 0.00 0.18 0.18 80 1015.3
20260502123020 16 108 12.9 22.5 0.00 0.18 0.18 80 1015.3
20260502122529 17 110 16.1 20.9 0.00 0.18 0.18 80 1015.7
20260502121525 17 98 16.1 24.1 0.00 0.18 0.18 80 1015.7
20260502121031 17 117 9.7 24.1 0.00 0.18 0.18 80 1015.1
20260502115528 17 62 17.7 25.7 0.00 0.18 0.18 80 1014.9
20260502114523 18 77 11.3 16.1 0.00 0.18 0.18 80 1014.9
20260502114027 18 79 6.4 12.9 0.00 0.18 0.18 80 1015.3
20260502113026 17 55 11.3 16.1 0.00 0.18 0.18 80 1015.3
20260502112539 17 12 6.4 12.9 0.00 0.18 0.18 80 1015.8
20260502112026 17 23 4.8 14.5 0.00 0.18 0.18 80 1015.8
20260502111038 17 2 9.7 16.1 0.00 0.18 0.18 80 1016.0
20260502110600 17 334 6.4 14.5 0.00 0.18 0.18 80 1016.0
20260502110038 16 359 6.4 16.1 0.00 0.18 0.18 80 1016.0
20260502105527 16 333 11.3 17.7 0.00 0.18 0.18 80 1016.4
20260502105033 16 326 9.7 17.7 0.00 0.18 0.18 80 1016.4
20260502104031 17 311 9.7 16.1 0.00 0.18 0.18 80 1016.6
20260502103540 17 289 4.8 11.3 0.00 0.18 0.18 80 1016.6
20260502103030 17 302 3.2 9.7 0.00 0.18 0.18 80 1016.6
20260502102537 17 79 1.6 9.7 0.00 0.18 0.18 80 1016.2
20260502102023 17 101 6.4 9.7 0.00 0.18 0.18 80 1016.2
20260502101532 17 95 6.4 11.3 0.00 0.18 0.18 80 1016.2
20260502101039 17 91 6.4 11.3 0.00 0.18 0.18 80 1016.1
20260502091524 16 51 0.0 4.8 0.10 0.18 0.18 80 1016.4
20260502090553 16 51 0.0 11.3 0.13 0.18 0.18 80 1016.0